TimeMST,TemperatureF,Dew PointF,Humidity,Sea Level PressureIn,VisibilityMPH,Wind Direction,Wind SpeedMPH,Gust SpeedMPH,PrecipitationIn,Events,Conditions,WindDirDegrees,DateUTC
12:15 AM,55.4,33.8,44,29.97,10.0,ESE,5.8,-,N/A,,Clear,120,2014-03-11 07:15:00
12:35 AM,51.8,33.8,50,29.96,10.0,East,8.1,-,N/A,,Clear,90,2014-03-11 07:35:00
12:55 AM,55.4,33.8,44,29.97,10.0,East,6.9,-,N/A,,Clear,100,2014-03-11 07:55:00
1:15 AM,53.6,32.0,44,29.96,10.0,ESE,8.1,-,N/A,,Clear,110,2014-03-11 08:15:00
1:35 AM,51.8,32.0,47,29.96,10.0,East,6.9,-,N/A,,Clear,100,2014-03-11 08:35:00
1:55 AM,51.8,32.0,47,29.97,10.0,East,6.9,-,N/A,,Clear,90,2014-03-11 08:55:00
2:15 AM,51.8,32.0,47,29.96,10.0,ESE,9.2,-,N/A,,Clear,110,2014-03-11 09:15:00
2:35 AM,53.6,32.0,44,29.96,10.0,East,8.1,-,N/A,,Clear,100,2014-03-11 09:35:00
2:55 AM,51.8,32.0,47,29.96,10.0,East,8.1,-,N/A,,Clear,100,2014-03-11 09:55:00
3:15 AM,51.8,32.0,47,29.95,10.0,East,8.1,-,N/A,,Clear,100,2014-03-11 10:15:00
3:35 AM,51.8,32.0,47,29.96,10.0,East,6.9,-,N/A,,Clear,100,2014-03-11 10:35:00
3:55 AM,51.8,33.8,50,29.95,10.0,ESE,6.9,-,N/A,,Clear,120,2014-03-11 10:55:00
4:15 AM,51.8,33.8,50,29.96,10.0,ESE,6.9,-,N/A,,Clear,110,2014-03-11 11:15:00
4:35 AM,50.0,33.8,54,29.96,10.0,East,8.1,-,N/A,,Clear,100,2014-03-11 11:35:00
4:47 AM,53.6,33.8,47,29.96,20.0,SE,3.5,-,N/A,,Partly Cloudy,130,2014-03-11 11:47:00
4:55 AM,50.0,33.8,54,29.96,10.0,SE,6.9,-,N/A,,Clear,130,2014-03-11 11:55:00
5:10 AM,51.8,33.8,50,29.96,10.0,SE,8.1,-,N/A,,Clear,130,2014-03-11 12:10:00
5:35 AM,46.4,33.8,62,29.97,10.0,ESE,9.2,-,N/A,,Clear,120,2014-03-11 12:35:00
5:47 AM,48.2,35.6,62,29.97,20.0,SE,6.9,-,N/A,,Partly Cloudy,130,2014-03-11 12:47:00
6:47 AM,50.0,35.6,58,29.97,45.0,ESE,6.9,-,N/A,,Partly Cloudy,120,2014-03-11 13:47:00
7:47 AM,53.6,35.6,51,29.99,45.0,SE,9.2,-,N/A,,Partly Cloudy,140,2014-03-11 14:47:00
8:50 AM,60.8,37.4,42,30.02,45.0,ESE,5.8,-,N/A,,Partly Cloudy,120,2014-03-11 15:50:00
9:47 AM,64.4,37.4,37,30.02,45.0,SSE,6.9,-,N/A,,Partly Cloudy,150,2014-03-11 16:47:00
10:47 AM,71.6,35.6,27,30.02,45.0,SE,3.5,-,N/A,,Partly Cloudy,140,2014-03-11 17:47:00
11:47 AM,73.4,35.6,25,30.00,45.0,Calm,Calm,-,N/A,,Partly Cloudy,0,2014-03-11 18:47:00
12:47 PM,73.4,32.0,22,29.97,45.0,Calm,Calm,-,N/A,,Partly Cloudy,0,2014-03-11 19:47:00
1:53 PM,75.2,30.2,19,29.94,45.0,WNW,4.6,-,N/A,,Partly Cloudy,290,2014-03-11 20:53:00
2:47 PM,77.0,30.2,18,29.92,45.0,West,3.5,-,N/A,,Partly Cloudy,270,2014-03-11 21:47:00
3:47 PM,78.8,35.6,21,29.90,45.0,West,4.6,-,N/A,,Scattered Clouds,270,2014-03-11 22:47:00
4:47 PM,78.8,30.2,17,29.90,45.0,WSW,6.9,-,N/A,,Mostly Cloudy,250,2014-03-11 23:47:00
5:47 PM,75.2,30.2,19,29.91,45.0,West,8.1,-,N/A,,Mostly Cloudy,260,2014-03-12 00:47:00
6:51 PM,73.4,28.4,19,29.92,20.0,WNW,3.5,-,N/A,,Mostly Cloudy,300,2014-03-12 01:51:00
7:47 PM,73.4,32.0,22,29.93,20.0,West,6.9,-,N/A,,Mostly Cloudy,260,2014-03-12 02:47:00
7:55 PM,69.8,32.0,25,29.93,10.0,West,5.8,-,N/A,,Clear,260,2014-03-12 02:55:00
8:15 PM,68.0,32.0,26,29.93,10.0,West,6.9,-,N/A,,Clear,260,2014-03-12 03:15:00
8:35 PM,68.0,32.0,26,29.93,10.0,West,6.9,-,N/A,,Clear,260,2014-03-12 03:35:00
8:50 PM,66.2,30.2,26,29.93,20.0,West,4.6,-,N/A,,Scattered Clouds,270,2014-03-12 03:50:00
8:55 PM,64.4,32.0,30,29.93,10.0,West,8.1,-,N/A,,Clear,260,2014-03-12 03:55:00
9:15 PM,69.8,28.4,21,29.94,10.0,WNW,10.4,-,N/A,,Clear,300,2014-03-12 04:15:00
9:35 PM,68.0,21.2,17,29.94,10.0,NW,5.8,-,N/A,,Clear,310,2014-03-12 04:35:00
9:47 PM,66.2,24.8,21,29.95,20.0,WNW,8.1,-,N/A,,Scattered Clouds,300,2014-03-12 04:47:00
9:55 PM,64.4,24.8,22,29.95,10.0,NNW,3.5,-,N/A,,Clear,340,2014-03-12 04:55:00
10:15 PM,66.2,21.2,18,29.95,10.0,Calm,Calm,-,N/A,,Clear,0,2014-03-12 05:15:00
10:35 PM,64.4,21.2,19,29.96,10.0,Calm,Calm,-,N/A,,Clear,0,2014-03-12 05:35:00
10:47 PM,64.4,24.8,22,29.96,20.0,Variable,4.6,-,N/A,,Scattered Clouds,0,2014-03-12 05:47:00
10:55 PM,60.8,28.4,29,29.96,10.0,Calm,Calm,-,N/A,,Clear,0,2014-03-12 05:55:00
11:15 PM,62.6,26.6,26,29.96,10.0,Calm,Calm,-,N/A,,Clear,0,2014-03-12 06:15:00
11:35 PM,60.8,28.4,29,29.97,10.0,SSW,3.5,-,N/A,,Clear,210,2014-03-12 06:35:00
11:47 PM,60.8,28.4,29,29.97,20.0,Variable,4.6,-,N/A,,Scattered Clouds,0,2014-03-12 06:47:00
11:55 PM,60.8,28.4,29,29.97,10.0,SSW,3.5,-,N/A,,Clear,210,2014-03-12 06:55:00